Regional Weather Roundup
Issued by NWS

Home | Current Version | Previous Version | Graphics & Text | Print | Product List | Glossary On
Versions: 1 2 3 4 5 6 7 8 9 10 11 12 13 14 15 16 17 18 19 20 21 22 23 24 25 26 27 28 29 30 31 32 33 34 35 36 37 38 39 40 41 42 43 44 45 46 47 48 49 50
000
ASUS43 KIND 210109
RWRIN

WEATHER ROUNDUP FOR INDIANA
NATIONAL WEATHER SERVICE INDIANAPOLIS IN
800 PM EST MON FEB 20 2017

NOTE: "FAIR" INDICATES FEW OR NO CLOUDS BELOW 12,000 FEET WITH NO
SIGNIFICANT WEATHER AND/OR OBSTRUCTIONS TO VISIBILITY.

* - STATION DOES NOT REPORT WEATHER SUCH AS PRECIPITATION OR FOG.

+ - STATION NOT QUALITY CONTROLLED BY THE NATIONAL WEATHER SERVICE.
    USE DATA WITH CAUTION...ESPECIALLY DEWPOINT AND RELATIVE
    HUMIDITY OBSERVATIONS.

INZ001>003-010>013-019-020-210200-
NORTHWEST INDIANA

CITY           SKY/WX    TMP DP  RH WIND       PRES   REMARKS
GARY /AIRPORT/ MOCLDY    63  41  45 SE12G23   29.99F
KNOX *+        CLOUDY    55  18  22 SE10      30.04S
LA PORTE +     CLOUDY    53  42  67 SE7       30.04S
MICHIGAN CITY+ PTCLDY    59  41  51 SE7       30.02F
MONTICELLO +   CLOUDY    58  45  61 SE5       30.04S
RENSSELAER +   CLOUDY    59  43  55 SE10      30.03S
VALPARAISO     CLOUDY    60  43  53 SE13      30.02F

$$

LMZ046-743>745-210200-
SOUTHERN LAKE MICHIGAN

STATION/POSITION TIME  TEMP    WIND        PRES    WAVE
                       AIR SEA DIR/SP/G            HT
                 (UTC) (F)     (DEG/KT/KT) (MB)    (FT)
BURNS HARBOR     0101   62     140/ 16/ 24 1015.9
MICHIGAN CITY    0040   61     130/ 12/ 15   N/A

$$

INZ004-005-014>016-021>024-210200-
NORTH CENTRAL INDIANA

CITY           SKY/WX    TMP DP  RH WIND       PRES   REMARKS
ELKHART        CLEAR     57  41  54 SE8       30.06F
GOSHEN         CLOUDY    56  40  55 SE9       30.07F
LOGANSPORT +   CLOUDY    54  43  66 SE7       30.07R
PERU/GRISSOM   CLOUDY    57  44  62 SE8       30.05F
ROCHESTER +    CLOUDY    59  41  51 SE7       30.07S
SOUTH BEND     CLOUDY    57  43  59 SE15      30.06F
WARSAW +       MOCLDY    55  41  58 SE8       30.07F

$$

INZ006>009-017-018-025>027-210200-
NORTHEAST INDIANA

CITY           SKY/WX    TMP DP  RH WIND       PRES   REMARKS
ANGOLA *+      CLEAR     45  36  70 E12       30.11F
AUBURN +       CLOUDY    50  37  62 E9        30.12F
FORT WAYNE     CLOUDY    54  41  61 SE8       30.10F
HUNTINGTON +   PTCLDY    55  40  57 SE6       30.08F
KENDALLVILLE + CLOUDY    51  38  63 E13G18    30.10F

$$

INZ028-029-035-036-043>045-051>053-210200-
WEST CENTRAL INDIANA

CITY           SKY/WX    TMP DP  RH WIND       PRES   REMARKS
GREENCASTLE +  CLOUDY    52  43  71 SE6       30.06R
LAFAYETTE      CLOUDY    60  46  59 SE8       30.04R
TERRE HAUTE    PTCLDY    57  45  64 SE7       30.04R

$$

INZ030>032-037>040-046>048-054>057-064-065-210200-
CENTRAL INDIANA

CITY           SKY/WX    TMP DP  RH WIND       PRES   REMARKS
COLUMBUS       CLEAR     57  48  72 E8        30.07S
FRANKFORT +    PTCLDY    55  46  71 SE6       30.08R
GREENWOOD *+   PTCLDY    59  49  69 SE3       30.07S
INDIANAPOLIS   CLOUDY    59  47  64 SE9       30.07R
-EAGLE CREEK   CLOUDY    60  46  59 SE8       30.06S
KOKOMO +       CLOUDY    55  45  68 SE8       30.07F
MARION +       PTCLDY    54  44  69 SE7       30.08F
MT COMFORT *+  CLOUDY    55  46  71 SE8       30.07F
SHELBYVILLE    PTCLDY    58  46  64 E9        30.07S
ZIONSVILLE +   PTCLDY    57  47  71 SE7       30.08R

$$

INZ033-034-041-042-049-050-058-059-210200-
EAST CENTRAL INDIANA

CITY           SKY/WX    TMP DP  RH WIND       PRES   REMARKS
MUNCIE         CLOUDY    58  43  57 SE5       30.08F

$$

INZ060-061-067>069-081>083-085>088-210200-
SOUTHWEST INDIANA

CITY           SKY/WX    TMP DP  RH WIND       PRES   REMARKS
EVANSVILLE     CLOUDY    63  47  55 SE5       30.04R
HUNTINGBURG *+ CLOUDY    63  48  58 S3        30.06R
WASHINGTON +   CLOUDY    55  46  70 S5        30.05R

$$

INZ062-063-066-070>080-084-089>092-210200-
SOUTH CENTRAL AND SOUTHEAST INDIANA

CITY           SKY/WX    TMP DP  RH WIND       PRES   REMARKS
BEDFORD +      MOCLDY   N/A N/A N/A E5        30.05
BLOOMINGTON    MOCLDY    55  45  68 CALM      30.06R
MADISON *+     PTCLDY    61  43  51 SE3       30.10R
NORTH VERNON + PTCLDY    61  46  59 E5        30.09R
SEYMOUR +      PTCLDY    57  46  67 E6        30.06

$$





USA.gov is the U.S. government's official web portal to all federal, state and local government web resources and services.